| time (UTC) | temp F | wind direction | speed knots | gust knots | rain 1hr in | rain 24hr in | rain mn in | humidity % | barometer mb |
| 20260503013042 | 67 | 140 | 0.0 | 0.0 | 0.00 | 0.00 | 0.00 | 38 | 1011.8 |
| 20260503011542 | 67 | 211 | 0.0 | 0.0 | 0.00 | 0.00 | 0.00 | 34 | 1011.9 |
| 20260503010141 | 66 | 211 | 0.0 | 0.0 | 0.00 | 0.00 | 0.00 | 35 | 1012.0 |
| 20260503004542 | 65 | 211 | 0.0 | 2.6 | 0.00 | 0.00 | 0.00 | 37 | 1012.2 |
| 20260503003037 | 65 | 211 | 0.0 | 0.0 | 0.00 | 0.00 | 0.00 | 35 | 1012.4 |
| 20260503001536 | 67 | 214 | 0.0 | 0.0 | 0.00 | 0.00 | 0.00 | 33 | 1012.5 |
| 20260503000135 | 66 | 214 | 0.0 | 0.0 | 0.00 | 0.00 | 0.00 | 34 | 1012.6 |
| 20260502234549 | 65 | 212 | 0.0 | 5.2 | 0.00 | 0.00 | 0.00 | 37 | 1012.8 |
| 20260502233038 | 67 | 231 | 0.0 | 11.3 | 0.00 | 0.00 | 0.00 | 32 | 1012.8 |
| 20260502231535 | 68 | 132 | 0.0 | 4.3 | 0.00 | 0.00 | 0.00 | 32 | 1013.0 |
| 20260502230133 | 67 | 240 | 0.9 | 7.0 | 0.00 | 0.00 | 0.00 | 33 | 1013.3 |
| 20260502224553 | 65 | 242 | 4.3 | 13.0 | 0.00 | 0.00 | 0.00 | 35 | 1013.6 |
| 20260502223052 | 67 | 265 | 7.8 | 14.8 | 0.00 | 0.00 | 0.00 | 34 | 1013.6 |
| 20260502221549 | 66 | 230 | 7.0 | 13.9 | 0.00 | 0.00 | 0.00 | 32 | 1013.9 |
| 20260502220146 | 66 | 169 | 0.0 | 7.0 | 0.00 | 0.00 | 0.00 | 35 | 1014.0 |
| 20260502214552 | 65 | 234 | 4.3 | 12.2 | 0.00 | 0.00 | 0.00 | 34 | 1014.4 |
| 20260502213053 | 65 | 275 | 0.0 | 2.6 | 0.00 | 0.00 | 0.00 | 34 | 1014.5 |
| 20260502211546 | 64 | 289 | 0.0 | 3.5 | 0.00 | 0.00 | 0.00 | 34 | 1014.8 |
| 20260502210143 | 64 | 288 | 5.2 | 11.3 | 0.00 | 0.00 | 0.00 | 34 | 1015.0 |
| 20260502204538 | 63 | 277 | 0.0 | 6.1 | 0.00 | 0.00 | 0.00 | 35 | 1015.0 |
| 20260502203037 | 63 | 267 | 0.9 | 10.4 | 0.00 | 0.00 | 0.00 | 36 | 1015.3 |
| 20260502201543 | 63 | 278 | 0.0 | 7.0 | 0.00 | 0.00 | 0.00 | 35 | 1015.3 |
| 20260502200136 | 63 | 306 | 0.0 | 6.1 | 0.00 | 0.00 | 0.00 | 34 | 1015.6 |
| 20260502194534 | 63 | 346 | 2.6 | 9.6 | 0.00 | 0.00 | 0.00 | 35 | 1015.9 |
| 20260502193032 | 63 | 309 | 1.7 | 9.6 | 0.00 | 0.00 | 0.00 | 35 | 1016.2 |
| 20260502191531 | 62 | 268 | 0.0 | 8.7 | 0.00 | 0.00 | 0.00 | 35 | 1016.3 |
| 20260502190130 | 62 | 298 | 0.0 | 9.6 | 0.00 | 0.00 | 0.00 | 36 | 1016.4 |
| 20260502184558 | 62 | 286 | 7.0 | 9.6 | 0.00 | 0.00 | 0.00 | 36 | 1016.7 |
| 20260502183051 | 62 | 355 | 0.0 | 8.7 | 0.00 | 0.00 | 0.00 | 36 | 1016.7 |
| 20260502181549 | 61 | 325 | 1.7 | 7.8 | 0.00 | 0.00 | 0.00 | 38 | 1016.9 |
| 20260502180146 | 61 | 259 | 0.0 | 7.8 | 0.00 | 0.00 | 0.00 | 39 | 1017.0 |
| 20260502170140 | 58 | 290 | 1.7 | 6.1 | 0.00 | 0.00 | 0.00 | 45 | 1017.5 |
| 20260502163043 | 57 | 325 | 0.9 | 7.8 | 0.00 | 0.00 | 0.00 | 48 | 1017.6 |
| 20260502161541 | 56 | 302 | 5.2 | 8.7 | 0.00 | 0.00 | 0.00 | 51 | 1017.6 |
| 20260502160139 | 55 | 289 | 5.2 | 8.7 | 0.00 | 0.00 | 0.00 | 56 | 1017.8 |
| 20260502151533 | 51 | 289 | 6.1 | 9.6 | 0.00 | 0.00 | 0.00 | 63 | 1017.8 |
| 20260502150133 | 51 | 273 | 6.1 | 8.7 | 0.00 | 0.00 | 0.00 | 64 | 1017.9 |
| 20260502130144 | 49 | 329 | 0.0 | 2.6 | 0.00 | 0.00 | 0.00 | 68 | 1017.0 |
| 20260502123046 | 49 | 311 | 2.6 | 7.0 | 0.00 | 0.00 | 0.00 | 68 | 1016.9 |
| 20260502121544 | 48 | 305 | 0.0 | 7.0 | 0.00 | 0.00 | 0.00 | 71 | 1016.9 |
| 20260502120138 | 47 | 284 | 2.6 | 4.3 | 0.00 | 0.00 | 0.00 | 73 | 1016.9 |
| 20260502114542 | 47 | 284 | 1.7 | 4.3 | 0.00 | 0.00 | 0.00 | 74 | 1016.9 |
| 20260502113038 | 48 | 284 | 2.6 | 3.5 | 0.00 | 0.00 | 0.00 | 72 | 1016.8 |
| 20260502111540 | 48 | 284 | 1.7 | 7.0 | 0.00 | 0.00 | 0.00 | 72 | 1017.0 |
| 20260502110134 | 48 | 280 | 3.5 | 7.8 | 0.00 | 0.00 | 0.00 | 71 | 1016.8 |
| 20260502104556 | 49 | 273 | 4.3 | 8.7 | 0.00 | 0.00 | 0.00 | 71 | 1016.9 |
| 20260502103107 | 49 | 273 | 6.1 | 8.7 | 0.00 | 0.00 | 0.00 | 70 | 1016.8 |
| 20260502101604 | 49 | 275 | 5.2 | 7.8 | 0.00 | 0.00 | 0.00 | 70 | 1016.7 |
| 20260502100149 | 49 | 289 | 5.2 | 7.8 | 0.00 | 0.00 | 0.00 | 68 | 1016.7 |
| 20260502090143 | 52 | 302 | 3.5 | 8.7 | 0.00 | 0.00 | 0.00 | 62 | 1016.3 |
| 20260502071534 | 53 | 360 | 0.0 | 4.3 | 0.00 | 0.00 | 0.00 | 62 | 1015.6 |
| 20260502070132 | 54 | 310 | 3.5 | 5.2 | 0.00 | 0.00 | 0.00 | 61 | 1015.8 |
| 20260502064602 | 54 | 335 | 3.5 | 7.8 | 0.00 | 0.00 | 0.00 | 61 | 1015.6 |
| 20260502063058 | 54 | 333 | 3.5 | 7.8 | 0.00 | 0.00 | 0.00 | 60 | 1015.3 |
| 20260502061554 | 55 | 338 | 2.6 | 8.7 | 0.00 | 0.00 | 0.00 | 59 | 1015.1 |
| 20260502060150 | 55 | 265 | 6.1 | 11.3 | 0.00 | 0.00 | 0.00 | 59 | 1015.0 |
| 20260502054545 | 56 | 336 | 6.1 | 11.3 | 0.00 | 0.00 | 0.00 | 57 | 1014.8 |
| 20260502053043 | 56 | 338 | 7.0 | 11.3 | 0.00 | 0.00 | 0.00 | 56 | 1014.9 |
| 20260502051542 | 57 | 312 | 7.0 | 9.6 | 0.00 | 0.00 | 0.00 | 54 | 1014.8 |
| 20260502050142 | 58 | 360 | 7.8 | 12.2 | 0.00 | 0.00 | 0.00 | 51 | 1014.5 |
| 20260502044536 | 58 | 360 | 5.2 | 12.2 | 0.00 | 0.00 | 0.00 | 50 | 1014.4 |
| 20260502043037 | 59 | 5 | 6.1 | 12.2 | 0.00 | 0.00 | 0.00 | 49 | 1014.2 |
| 20260502041535 | 60 | 44 | 4.3 | 13.9 | 0.00 | 0.00 | 0.00 | 46 | 1014.1 |
| 20260502040134 | 60 | 23 | 4.3 | 15.6 | 0.00 | 0.00 | 0.00 | 45 | 1013.8 |
| 20260502034535 | 60 | 34 | 10.4 | 15.6 | 0.00 | 0.00 | 0.00 | 45 | 1013.4 |
| 20260502033042 | 61 | 27 | 8.7 | 13.9 | 0.00 | 0.00 | 0.00 | 45 | 1013.2 |
| 20260502031532 | 61 | 32 | 9.6 | 14.8 | 0.00 | 0.00 | 0.00 | 44 | 1012.8 |
| 20260502024540 | 63 | 44 | 7.8 | 11.3 | 0.00 | 0.00 | 0.00 | 39 | 1012.2 |
| 20260502023042 | 66 | 56 | 6.1 | 13.0 | 0.00 | 0.00 | 0.00 | 33 | 1012.0 |
| 20260502021538 | 67 | 43 | 10.4 | 16.5 | 0.00 | 0.00 | 0.00 | 32 | 1011.6 |
| 20260502020139 | 69 | 125 | 0.0 | 13.9 | 0.00 | 0.00 | 0.00 | 25 | 1010.9 |
| 20260502014536 | 69 | 103 | 6.1 | 10.4 | 0.00 | 0.00 | 0.00 | 25 | 1011.0 |